Regional Weather Roundup
Issued by NWS State College, PA

Home | Current Version | Previous Version | Graphics & Text | Print | Product List | Glossary On
Versions: 1 2 3 4 5 6 7 8 9 10 11 12 13 14 15 16 17 18 19 20 21 22 23 24 25 26 27 28 29 30 31 32 33 34 35 36 37 38 39 40 41 42 43 44 45 46 47 48 49 50
000
ASUS41 KCTP 030710
RWRCTP

REGIONAL WEATHER ROUNDUP
NATIONAL WEATHER SERVICE STATE COLLEGE PA
300 AM EDT SUN MAY 03 2015

Note: "fair" indicates few or no clouds below 12,000 feet with no
significant weather and/or obstructions to visibility.

* = STATION THAT DOES NOT REPORT PRECIPITATION /E.G. RAIN...SNOW...ETC/
    THUNDER OR FOG.

PAZ002>004-007>009-013>016-020>023-029>032-030800-
WESTERN PENNSYLVANIA

CITY           SKY/WX    TMP DP  RH WIND       PRES   REMARKS
ERIE           CLEAR     53  36  52 S6        30.02S
MEADVILLE      CLEAR     54  34  46 CALM      30.05S
FRANKLIN*      CLEAR     54  34  47 S3        30.07R
NEW CASTLE     FAIR      46  42  86 CALM      30.06F
BEAVER COUNTY  NOT AVBL
BUTLER*        CLEAR     45  39  81 NE5       30.08S
PITTSBURGH INT PTCLDY    52  41  66 CALM      30.05F
PITTSBURGH     CLEAR     57  37  47 CALM      30.06S
INDIANA*       CLOUDY    45  39  81 CALM      30.10S
LATROBE        CLEAR     46  41  81 CALM      30.09S
WASHINGTON CO* PTCLDY    45  41  87 CALM      30.08S
$$

PAZ004>006-010>012-017>019-024>028-033>037-041-042-045-046-049>053-030800-
CENTRAL PENNSYLVANIA

CITY           SKY/WX    TMP DP  RH WIND       PRES   REMARKS
BRADFORD       PTCLDY    41  30  65 CALM      30.06R
DUBOIS         CLEAR     55  30  38 CALM      30.05F
CLEARFIELD     CLEAR     47  32  56 CALM      30.06S
JOHNSTOWN      CLEAR     54  31  41 SW5       30.07F
ALTOONA        CLEAR     50  34  54 CALM      30.07S
STATE COLLEGE  CLEAR     55  29  38 W3        30.05S
WILLIAMSPORT   CLEAR     48  38  68 NW3       30.04S
SELINSGROVE    CLEAR     44  41  89 CALM      30.04S
FT INDIANTOWN  PTCLDY    50  41  69 E5        30.02R
CAPITAL CITY   CLEAR     53  41  63 CALM      30.02R
HARRISBURG     CLEAR     52  45  77 N3        30.01R
YORK           CLEAR     54  39  57 W7        30.01R
$$

PAZ038>040-043-044-047-048-054-055-060>062-067>071-030800-
EASTERN PENNSYLVANIA

CITY           SKY/WX    TMP DP  RH WIND       PRES   REMARKS
SCRANTON       CLEAR     50  31  48 E7        30.03R
MOUNT POCONO   CLEAR     40  32  73 N3        30.04R
ALLENTOWN      PTCLDY    50  44  80 NE5       30.03S
QUAKERTOWN*    CLOUDY    52  46  82 CALM      30.04S
READING        CLOUDY    50  43  77 CALM      30.02R
LANCASTER      PTCLDY    51  46  83 SE6       30.01S
COATESVILLE    CLOUDY    50  48  93 N3        30.03S
POTTSTOWN      CLOUDY    50  46  86 CALM      30.05R
BLUE BELL      PTCLDY    50  45  81 CALM      30.03S
DOYLESTOWN     CLOUDY    47  32  56 CALM      30.03S
WILLOW GROVE   NOT AVBL
NORTH PHILA    CLOUDY    51  39  63 E5        30.06R
PHILADELPHIA   MOCLDY    51  43  74 E5        30.04S
$$



USA.gov is the U.S. government's official web portal to all federal, state and local government web resources and services.